"Pseudo-MPEC" for C0J3UF5

Created 2023 Sep 19 16:22:03 UT using Find_Orb

Click here for an explanation of pseudo-MPECs

 
 Astrometry: 
     C0J3UF5* C2023 09 16.48732005 05 46.201+55 46 57.61   ~9GCb 22.03GVNEOCPV00
     C0J3UF5  C2023 09 16.49281705 05 47.634+55 47 01.18   ~9GCb 21.84GVNEOCPV00
     C0J3UF5  C2023 09 16.49826105 05 49.031+55 47 04.74   ~9GCb 21.84GVNEOCPV00
     C0J3UF5  C2023 09 16.50522905 05 50.860+55 47 09.28   ~9GCb 22.07GVNEOCPV00
     C0J3UF5 KC2023 09 17.41693 05 09 53.50 +55 56 38.3    ~9HBM 21.8 GVNEOCP291
     C0J3UF5 KC2023 09 17.42737 05 09 56.16 +55 56 45.3    ~9HBM 21.9 GVNEOCP291
     C0J3UF5 KC2023 09 17.43781 05 09 58.90 +55 56 51.4    ~9HBM 22.0 GVNEOCP291
     C0J3UF5 KC2023 09 18.33455 05 13 57.17 +56 05 40.6    ~9I9b       oNEOCP291
     C0J3UF5 KC2023 09 18.34322 05 13 59.49 +56 05 45.6    ~9I9b 22.1 RoNEOCP291
     C0J3UF5 KC2023 09 18.35189 05 14 01.78 +56 05 51.3    ~9I9b 21.7 RoNEOCP291
     C0J3UF5  C2023 09 19.46748705 18 56.992+56 16 15.13   ~9JCb 22.22GVNEOCPV00
     C0J3UF5  C2023 09 19.47397005 18 58.698+56 16 18.66   ~9JCb 22.21GVNEOCPV00
     C0J3UF5  C2023 09 19.48499605 19 01.549+56 16 24.60   ~9JCb 21.69GVNEOCPV00

Station data:
(291) LPL/Spacewatch II  (N31.961669 W111.599905)  US/Arizona.  Observers J.
   V. Scotti, R. S. McMillan. 1.8-m f/2.7 reflector + CCD.
(V00) Kitt Peak-Bok  (N31.963125 W111.600190)  US/Arizona.  Observers T. A.
   Pruyne, B. M. Africano, E. J. Christensen, G. A. Farneth, D. C. Fuls, A.
   R. Gibbs, A. D. Grauer, H. Gröller, J. A. Johnson, R. A. Kowalski, S. M.
   Larson, G. J. Leonard, D. Rankin, R. L. Seaman, F. C. Shelly, K. W.
   Wierzchoś. 2.25-m reflector + 4x4K mosaic CCD.

Orbital elements:  C0J3UF5
   Perihelion 2023 Sep 30.76182 +/- 1.16 TT = 18:17:00 (JD 2460218.26182)
Epoch 2023 Sep 19.0 TT = JDT 2460206.5   Earth MOID: 0.6475      AutoNEOCP
M 358.02154440 +/- 0.8              (J2000 ecliptic)
n   0.16821004 +/- 0.0616           Peri.  101.87976 +/- 1.6
a   3.25013523 +/- 0.793            Node   301.06552 +/- 2.1
e   0.5499432 +/- 0.0981            Incl.   22.58956 +/- 0.56
P   5.86                   H 19.67  G  0.15   U 10.9
q 1.46274538 +/- 0.0383    Q 5.03752509 +/- 1.55
From 13 observations 2023 Sept. 16-19; mean residual 0".18
Residuals in arcseconds: 
230916 V00  .00   .07+    230917 291  .03-  .13+    230919 V00  .06-  .09+    
230916 V00  .01+  .05+    230917 291  .07+  .36-    230919 V00  .12+  .04+    
230916 V00  .17-  .06+    230918 291  .37-  .13+    230919 V00  .03+  .08-    
230916 V00  .05-  .06+    230918 291  .08-  .18-    
230917 291  .56+  .24-    230918 291  .02-  .22+    

Ephemerides (geocentric):
Date (UTC) HH   RA             Dec           delta  r     elong  mag " sig PA
---- --------  ------------   ------------  ------ ------ -----  --- --------
2023 09 19 16  05 19 49.342   +56 17 58.27  1.0297 1.4674  92.3 22.2 .373  86
2023 09 19 17  05 20 00.367   +56 18 20.31  1.0295 1.4674  92.3 22.2 .371  87
2023 09 19 18  05 20 11.390   +56 18 42.29  1.0293 1.4673  92.3 22.2 .370  88
2023 09 19 19  05 20 22.413   +56 19 04.20  1.0291 1.4673  92.3 22.2 .368  89
2023 09 19 20  05 20 33.434   +56 19 26.05  1.0290 1.4673  92.4 22.2 .367  90
2023 09 19 21  05 20 44.454   +56 19 47.84  1.0288 1.4672  92.4 22.2 .365  91
2023 09 19 22  05 20 55.473   +56 20 09.57  1.0286 1.4672  92.4 22.2 .363  92
2023 09 19 23  05 21 06.491   +56 20 31.24  1.0284 1.4672  92.4 22.2 .362  94
2023 09 20 00  05 21 17.508   +56 20 52.85  1.0283 1.4671  92.4 22.2 .360  95
2023 09 20 01  05 21 28.523   +56 21 14.39  1.0281 1.4671  92.4 22.2 .358  96
2023 09 20 02  05 21 39.538   +56 21 35.87  1.0279 1.4671  92.4 22.2 .356  98
2023 09 20 03  05 21 50.551   +56 21 57.30  1.0278 1.4670  92.4 22.2 .355  99
2023 09 20 04  05 22 01.563   +56 22 18.66  1.0276 1.4670  92.4 22.2 .353 101
2023 09 20 05  05 22 12.574   +56 22 39.96  1.0274 1.4670  92.4 22.2 .352 102
2023 09 20 06  05 22 23.583   +56 23 01.19  1.0272 1.4669  92.4 22.2 .350 104
2023 09 20 07  05 22 34.591   +56 23 22.37  1.0271 1.4669  92.4 22.2 .349 106
2023 09 20 08  05 22 45.598   +56 23 43.48  1.0269 1.4669  92.5 22.2 .348 107
2023 09 20 09  05 22 56.604   +56 24 04.54  1.0267 1.4668  92.5 22.2 .347 109
2023 09 20 10  05 23 07.608   +56 24 25.53  1.0266 1.4668  92.5 22.2 .346 111
2023 09 20 11  05 23 18.612   +56 24 46.46  1.0264 1.4668  92.5 22.2 .345 113
2023 09 20 12  05 23 29.613   +56 25 07.33  1.0262 1.4667  92.5 22.2 .345 114
2023 09 20 13  05 23 40.614   +56 25 28.14  1.0260 1.4667  92.5 22.2 .344 116
2023 09 20 14  05 23 51.613   +56 25 48.88  1.0259 1.4667  92.5 22.2 .344 118
2023 09 20 15  05 24 02.611   +56 26 09.57  1.0257 1.4666  92.5 22.2 .345 120
2023 09 20 16  05 24 13.607   +56 26 30.19  1.0255 1.4666  92.5 22.2 .345 122
2023 09 20 17  05 24 24.602   +56 26 50.75  1.0254 1.4666  92.5 22.2 .346 124
2023 09 20 18  05 24 35.596   +56 27 11.25  1.0252 1.4666  92.5 22.2 .348 126
2023 09 20 19  05 24 46.588   +56 27 31.69  1.0250 1.4665  92.5 22.2 .349 129
2023 09 20 20  05 24 57.579   +56 27 52.07  1.0248 1.4665  92.6 22.2 .351 131
2023 09 20 21  05 25 08.568   +56 28 12.39  1.0247 1.4665  92.6 22.2 .354 133
2023 09 20 22  05 25 19.556   +56 28 32.65  1.0245 1.4664  92.6 22.2 .357 135
2023 09 20 23  05 25 30.543   +56 28 52.84  1.0243 1.4664  92.6 22.2 .360 137
2023 09 21 00  05 25 41.528   +56 29 12.97  1.0242 1.4664  92.6 22.2 .364 139
2023 09 21 01  05 25 52.511   +56 29 33.05  1.0240 1.4663  92.6 22.2 .368 142
2023 09 21 02  05 26 03.494   +56 29 53.06  1.0238 1.4663  92.6 22.2 .373 144
2023 09 21 03  05 26 14.474   +56 30 13.01  1.0237 1.4663  92.6 22.2 .378 146
2023 09 21 04  05 26 25.453   +56 30 32.90  1.0235 1.4662  92.6 22.2 .384 148
2023 09 21 05  05 26 36.431   +56 30 52.73  1.0233 1.4662  92.6 22.2 .390 150
2023 09 21 06  05 26 47.407   +56 31 12.49  1.0231 1.4662  92.6 22.2 .397 152
2023 09 21 07  05 26 58.381   +56 31 32.20  1.0230 1.4662  92.6 22.2 .404 154
2023 09 21 08  05 27 09.354   +56 31 51.85  1.0228 1.4661  92.7 22.2 .412 156
2023 09 21 09  05 27 20.325   +56 32 11.43  1.0226 1.4661  92.7 22.2 .421 158
2023 09 21 10  05 27 31.294   +56 32 30.95  1.0225 1.4661  92.7 22.2 .430 160
2023 09 21 11  05 27 42.262   +56 32 50.42  1.0223 1.4660  92.7 22.2 .439 162
2023 09 21 12  05 27 53.229   +56 33 09.82  1.0221 1.4660  92.7 22.2 .449 164
2023 09 21 13  05 28 04.194   +56 33 29.16  1.0219 1.4660  92.7 22.2 .460 166
2023 09 21 14  05 28 15.157   +56 33 48.44  1.0218 1.4659  92.7 22.2 .471 168
2023 09 21 15  05 28 26.118   +56 34 07.66  1.0216 1.4659  92.7 22.2 .483 169